Location: Cieszkowy
(50.3290°N, 20.5336°E)
Time: 23:59:58
(UTC+00:00)

Resurs 1-4 Rocket - Pass Details

Date: 15 June 2024
Orbit: 799 x 812 km, 98.7° (Epoch: 18 July)

Event Time Altitude Azimuth Distance (km) Brightness Sun altitude
Rises 00:50:21 0° 15° (NNE) 3,325 7.0 -10.8°
Reaches altitude 10° 00:52:41 10° 15° (NNE) 2,392 5.9 -10.6°
Maximum altitude 00:57:59 89° 288° (WNW) 812 2.1 -10.1°
Enters shadow 01:03:04 11° 197° (SSW) 2,299 3.9 -9.7°
